Weather History for KHVR - October, 2012

Change the Weather History Date:

Saturday, October 27, 2012

  Actual Average Record
Temperature  
Mean Temperature 28 °F 40 °F  
Max Temperature 32 °F 53 °F 79 °F (1891)
Min Temperature 23 °F 26 °F -3 °F (1925)
Degree Days  
Heating Degree Days 37 26  
Month to date heating degree days 613 536  
Since 1 July heating degree days 827 893  
Cooling Degree Days 0 0  
Month to date cooling degree days 0 0  
Year to date cooling degree days 507 386  
Moisture  
Dew Point 23 °F    
Average Humidity 85    
Maximum Humidity 92    
Minimum Humidity 78    
Precipitation  
Precipitation T in 0.01 in 1.34 in (1940)
Month to date precipitation 1.14 0.52  
Year to date precipitation 11.47 10.31  
Snow  
Snow T in 0.10 in 2.60 in (1984)
Month to date snowfall 1.5 1.6  
Since 1 July snowfall 1.5 1.9  
Since 1 September snowfall 1.5 1.9  
Snow Depth 2.00 in    
Sea Level Pressure  
Sea Level Pressure 30.17 in    
Wind  
Wind Speed 11 mph (ENE)    
Max Wind Speed 17 mph    
Max Gust Speed 20 mph    
Visibility 10 miles    
Events Snow    
T = Trace of Precipitation, MM = Missing Value Source: NWS Daily Summary

Daily Weather History Graph

Daily Weather History Graph

Search for Another Location

Airport or City:

Trip Planner

Search our weather history database for the weather conditions in past years. The results will help you decide how hot, cold, wet, or windy it might be!

Date:

Astronomy

Oct. 27, 2012 Rise Set
Actual Time 7:58 AM MDT 6:06 PM MDT
Civil Twilight 7:25 AM MDT 6:39 PM MDT
Nautical Twilight 6:48 AM MDT 7:15 PM MDT
Astronomical Twilight 6:12 AM MDT 7:52 PM MDT
Moon 4:59 PM MDT (10/27) 5:49 AM MDT (10/27)
Length of Visible Light 11h 13m
Length of Day
10h 08m
Waxing Gibbous, 96% of the Moon is Illuminated
Oct 27
Waxing Gibbous
Oct 29
Full
Nov 6
Last Quarter
Nov 13
New
Nov 20
First Quarter

Hourly Weather History & Observations

Time (MDT) Temp. Windchill Dew Point Humidity Pressure Visibility Wind Dir Wind Speed Gust Speed Precip Events Conditions
12:53 AM 23.0 °F 10.6 °F 19.9 °F 88% 30.25 in 10.0 mi ENE 13.8 mph - N/A   Overcast
1:53 AM 23.0 °F 10.6 °F 19.9 °F 88% 30.24 in 10.0 mi ENE 13.8 mph - N/A   Overcast
2:53 AM 23.0 °F 10.6 °F 19.9 °F 88% 30.24 in 10.0 mi East 13.8 mph - N/A   Overcast
3:53 AM 24.1 °F 11.5 °F 19.9 °F 84% 30.23 in 10.0 mi East 15.0 mph - N/A   Overcast
4:53 AM 24.1 °F 11.5 °F 19.9 °F 84% 30.22 in 10.0 mi East 15.0 mph - N/A   Overcast
5:53 AM 24.1 °F 13.1 °F 19.9 °F 84% 30.22 in 10.0 mi East 11.5 mph - N/A   Overcast
6:53 AM 24.1 °F 13.1 °F 21.0 °F 88% 30.23 in 10.0 mi East 11.5 mph - N/A   Overcast
7:53 AM 24.1 °F 14.4 °F 21.0 °F 88% 30.22 in 10.0 mi East 9.2 mph - N/A   Overcast
9:53 AM 25.0 °F 13.1 °F 21.9 °F 88% 30.22 in 10.0 mi ENE 13.8 mph - N/A   Overcast
10:53 AM 26.1 °F 14.5 °F 23.0 °F 88% 30.20 in 10.0 mi East 13.8 mph - N/A   Overcast
11:53 AM 28.0 °F 17.5 °F 23.0 °F 81% 30.19 in 10.0 mi East 12.7 mph - 0.00 in   Overcast
12:53 PM 28.9 °F 18.6 °F 25.0 °F 85% 30.18 in 7.0 mi East 12.7 mph - 0.00 in Snow Light Snow
1:53 PM 30.0 °F 21.1 °F 25.0 °F 82% 30.17 in 10.0 mi East 10.4 mph - 0.00 in   Overcast
2:53 PM 30.9 °F 21.7 °F 26.1 °F 82% 30.15 in 10.0 mi East 11.5 mph - N/A   Overcast
3:53 PM 30.9 °F 22.2 °F 27.0 °F 85% 30.15 in 10.0 mi East 10.4 mph - N/A   Overcast
4:53 PM 32.0 °F 23.0 °F 26.1 °F 79% 30.14 in 10.0 mi East 11.5 mph - N/A   Overcast
5:53 PM 30.9 °F 22.8 °F 27.0 °F 85% 30.14 in 10.0 mi ENE 9.2 mph - N/A   Overcast
6:53 PM 28.9 °F 19.8 °F 26.1 °F 89% 30.14 in 10.0 mi East 10.4 mph - N/A   Overcast
7:53 PM 28.9 °F 21.1 °F 26.1 °F 89% 30.14 in 10.0 mi East 8.1 mph - N/A   Overcast
8:53 PM 27.0 °F 18.0 °F 25.0 °F 92% 30.13 in 10.0 mi ENE 9.2 mph - N/A   Scattered Clouds
9:53 PM 26.6 °F 18.2 °F 24.8 °F 93% 30.02 in 10.0 mi East 8.1 mph - N/A   Mostly Cloudy
10:53 PM 28.0 °F 20.0 °F 26.1 °F 92% 30.10 in 10.0 mi East 8.1 mph - N/A   Overcast
11:53 PM 28.0 °F 20.8 °F 25.0 °F 88% 30.08 in 10.0 mi ENE 6.9 mph - N/A   Overcast